Location: Burgerwiesen
(48.6500°N, 15.6167°E)
Time: 09:16:16
(UTC+00:00)

Daily predictions for brighter satellites

Satellite Brightness Start Highest point End
(mag) Time Altitude Azimuth Time Altitude Azimuth Time Altitude Azimuth
CZ-4C R/B 3.0 15:27:55 10° NW 15:34:53 65° NE 15:43:08 10° SE
ATLAS 2AS CENTAUR R/B 4.2 15:30:43 10° WNW 15:36:58 26° N 15:42:58 10° NE
Cosmos 1340 Rocket 3.4 15:33:15 10° NNW 15:37:19 64° W 15:41:21 10° S
ADEOS 3.8 15:32:12 10° SSE 15:37:25 78° WSW 15:42:41 10° NNW
Cosmos 841 Rocket 3.9 15:33:00 10° S 15:37:53 46° ESE 15:42:48 10° NNE
Cosmos 2034 Rocket 4.0 15:32:05 10° S 15:38:14 85° E 15:44:27 10° N
Cosmos 1743 Rocket 3.6 15:37:50 10° N 15:42:11 85° W 15:46:31 10° S
Cosmos 1697 Rocket 3.2 15:36:41 10° NNW 15:42:16 67° WSW 15:47:49 10° SSE
USA 307 3.5 15:38:55 10° WNW 15:43:00 42° N 15:47:04 10° E
Cosmos 372 Rocket 4.0 15:38:59 10° NNW 15:44:13 65° ENE 15:49:26 10° SSE
Cosmos 2322 Rocket 3.3 15:40:07 10° N 15:44:34 23° NE 15:49:01 10° E
Meteor PRIRODA 3.5 15:40:59 10° SSE 15:44:34 68° ENE 15:48:11 10° N
CZ-4C R/B 3.3 15:41:03 10° NNE 15:44:50 79° WNW 15:48:25 10° SSW
Cosmos 1937 Rocket 3.7 15:40:14 10° NNW 15:45:35 84° WSW 15:50:54 10° SSE
ERBS 4.0 15:43:15 10° NW 15:45:36 18° N 15:47:57 10° NE
USA 234 3.4 15:39:48 10° ESE 15:46:14 62° NNE 15:52:39 10° NW
Lacrosse 5 rocket 1.4 15:43:12 10° NW 15:46:59 53° NNE 15:50:59 10° ESE
Cosmos 1980 Rocket 2.2 15:42:48 10° NNW 15:48:31 77° ENE 15:54:08 10° SSE
Cosmos 2026 Rocket 3.9 15:46:21 10° N 15:52:28 67° ENE 15:58:29 10° SSE
AQUARIUS 4.5 15:48:49 10° SE 15:53:04 44° ENE 15:57:21 10° N
Cosmos 1666 Rocket 4.1 15:49:14 10° N 15:53:22 37° ENE 15:57:27 10° SE
EP 1 4.4 15:50:17 10° SW 15:53:33 86° SE 15:56:06 11° NE
Cosmos 1809 Rocket 4.4 15:48:04 10° N 15:54:11 76° E 16:00:16 10° SSE
Cosmos 1125 Rocket 4.4 15:50:17 10° N 15:54:47 28° NE 15:59:17 10° ESE
CORIOLIS 4.3 15:49:43 10° SE 15:54:57 53° ENE 16:00:14 10° N
Cosmos 1634 Rocket 4.1 15:49:00 10° S 15:55:09 57° E 16:01:21 10° NNE
Cosmos 2195 Rocket 4.5 15:50:54 10° N 15:57:06 84° E 16:03:20 10° S
H-2A R/B 2.5 15:54:42 10° SE 15:59:17 35° ENE 16:03:47 10° N
Cosmos 2369 4.0 15:54:22 10° NNW 16:00:07 74° WSW 16:05:48 10° SSE
Cosmos 1812 3.3 15:58:41 10° SSE 16:02:13 36° E 16:05:47 10° NNE
PSLV R/B 4.2 16:00:03 10° SE 16:03:27 36° ENE 16:06:56 10° N
Okean O Rocket 2.8 16:01:00 10° ESE 16:04:20 21° ENE 16:07:42 10° NNE
ATLAS CENTAUR R/B 3.9 16:02:46 10° NW 16:04:43 12° NNW 16:06:43 10° NNE
X-37B 3.1 16:04:38 10° SSE 16:04:47 10° SSE 16:04:57 10° SE
Cosmos 2221 4.3 16:01:05 10° SW 16:04:54 31° WNW 16:08:47 10° N
SL-16 R/B 2.8 16:00:20 10° NNW 16:05:33 35° NE 16:10:43 10° ESE
USA 308 3.3 16:01:40 10° WNW 16:05:48 46° NNE 16:09:18 14° E
CZ-2C R/B 3.2 16:01:22 10° S 16:06:10 69° WSW 16:10:54 10° NNW
Cosmos 2082 Rocket 2.2 16:03:21 10° SSW 16:09:00 72° ESE 16:14:40 10° NNE
Sich 1 3.0 16:04:47 10° N 16:09:07 88° W 16:13:27 10° S
Cosmos 540 Rocket 3.6 16:04:51 10° SSW 16:09:57 77° WNW 16:15:06 10° NNE
ARGOS 3.9 16:05:48 10° ESE 16:10:25 30° ENE 16:15:02 10° N
Meteor 1-5 Rocket 4.4 16:05:12 10° N 16:11:07 57° ENE 16:16:52 10° SSE
FengYun 1-2 T 4.3 16:08:19 10° SSE 16:13:54 84° WSW 16:19:27 10° NNW
COSMOS 2455 2.9 16:09:40 10° SSW 16:15:43 88° NW 16:21:45 10° NE
SMAP 3.0 16:11:57 10° SSE 16:16:36 86° E 16:21:18 10° NNW
NOAA 6 4.0 16:12:57 10° SSE 16:18:05 87° ENE 16:23:15 10° NNW
deb Chang Zheng 4 4.2 16:16:32 10° SE 16:20:19 31° ENE 16:24:09 10° N
Cosmos 1805 Rocket 4.4 16:17:21 10° NNW 16:21:35 52° W 16:25:48 10° S
Cosmos 1933 4.2 16:18:06 10° SSW 16:22:02 52° WNW 16:26:00 10° N
Cosmos 1833 Rocket 3.5 16:17:04 10° SW 16:22:31 49° NW 16:28:00 10° NNE
Cosmos 2278 3.8 16:16:52 10° NNW 16:22:37 84° WSW 16:28:18 10° SSE
Cosmos 2333 Rocket 3.6 16:20:44 10° N 16:24:41 18° NE 16:26:02 17° NE
CZ-4B DEB 4.1 16:21:44 10° SSE 16:27:14 81° ENE 16:32:45 10° NNW
CZ-2C R/B 3.2 16:25:20 10° NNE 16:29:58 34° E 16:34:39 10° SSE
USA 305 3.0 16:26:03 10° WNW 16:30:17 58° NNE 16:32:51 22° E
Cosmos 1655 Rocket 4.2 16:25:32 10° N 16:31:42 47° ENE 16:37:47 10° SSE
Cosmos 1356 Rocket 4.1 16:28:48 10° N 16:32:37 31° ENE 16:36:25 10° SE
Cosmos 2219 Rocket 3.7 16:29:08 10° N 16:32:46 17° NE 16:33:20 17° NE
Cosmos 1500 4.2 16:31:09 10° NNW 16:34:45 48° W 16:38:20 10° S
Meteor 1-14 Rocket 4.3 16:29:14 10° NNW 16:35:08 89° W 16:41:06 10° S
Cosmos 44 Rocket 3.3 16:32:01 10° NW 16:36:59 84° SW 16:41:45 10° SSE
Meteor 2-16 Rocket 4.4 16:33:10 10° N 16:39:20 88° E 16:45:28 10° S
Cosmos 1515 Rocket 4.1 16:37:24 10° SSE 16:41:27 35° E 16:43:15 25° NE
COSMOS 2406 4.1 16:36:40 10° SW 16:42:10 46° NW 16:47:42 10° NNE
Cosmos 1814 Rocket 4.0 16:37:35 10° SSW 16:42:48 85° WNW 16:47:38 12° NNE
Cosmos 921 Rocket 3.1 16:39:51 10° S 16:43:54 49° ESE 16:45:57 26° NE
Cosmos 1570 Rocket 4.0 16:44:25 10° SSW 16:49:40 85° WNW 16:54:14 14° NNE
MOS 1-B Rocket 4.1 16:45:14 10° NNE 16:51:16 71° ESE 16:58:12 10° S
CZ-4B R/B 3.0 16:47:57 10° SSE 16:53:18 74° ENE 16:58:38 10° NNW
USA 267 3.2 16:50:26 23° ENE 16:54:47 87° SE 17:01:21 10° SW
Cosmos 2298 Rocket 4.0 16:50:04 10° NNW 16:55:26 85° ENE 17:00:47 10° SSE
CZ-2D R/B 3.6 16:51:56 10° S 16:55:43 66° WSW 16:59:31 10° NNW
Cosmos 371 Rocket 4.3 16:51:38 10° N 16:55:08 27° NE 16:55:08 27° NE
MOS 1-B 4.4 16:52:25 10° SSE 16:58:12 80° WSW 17:04:02 10° NNW
Meteor 2-15 Rocket 4.5 16:53:10 10° SSE 16:59:04 54° E 17:05:01 10° NNE
YAOGAN 3 4.5 16:55:05 10° SSE 16:59:24 65° ENE 17:03:44 10° N
ATLAS CENTAUR R/B 3.0 16:51:46 10° WSW 16:59:43 50° NNW 17:01:31 29° NNE
COSMO-SKYMED 1 2.5 16:59:10 28° NNE 17:01:17 60° E 17:05:34 10° S
Cosmos 1633 Rocket 3.7 16:57:26 10° NNW 17:01:44 56° W 17:06:01 10° S
Cosmos 1151 Rocket 3.6 16:57:37 10° SSW 17:01:54 58° WNW 17:06:14 10° N
Meteor 1-27 Rocket 4.0 16:56:53 10° SSE 17:02:01 42° E 17:04:01 31° NE
USA 306 2.7 16:58:22 10° WNW 17:02:38 79° NNE 17:03:51 45° ESE
Cosmos 1666 4.0 16:59:57 10° NNW 17:03:27 40° W 17:06:56 10° SSW
Landsat 5 3.8 17:05:04 40° ESE 17:05:04 40° ESE 17:08:18 10° S
APEX 3.0 17:01:01 10° SSW 17:04:23 56° SE 17:04:23 56° SE
Meteor 2-6 Rocket 4.2 16:59:13 10° S 17:04:56 87° WNW 17:10:31 10° N
SJ-11-01 4.2 17:01:27 10° SSE 17:06:11 78° ENE 17:10:56 10° N
Cosmos 2360 Rocket 2.4 17:01:08 10° NNW 17:06:36 46° NE 17:08:17 36° E
ISS -0.4 17:06:31 10° WSW 17:07:32 11° SW 17:08:34 10° SSW
Helios 1B 4.5 17:06:10 34° NNE 17:07:55 66° ESE 17:12:13 10° S
YAOGAN 1 4.0 17:11:21 23° NNE 17:11:21 23° NNE 17:13:11 10° N
Cosmos 1900 4.5 17:04:40 10° SW 17:09:31 70° NW 17:11:53 30° NNE
Cosmos 2237 4.2 17:04:14 10° NNW 17:09:55 62° ENE 17:13:44 21° SE
Cosmos 1818 4.5 17:07:07 10° NW 17:12:24 50° WSW 17:17:38 10° SSE
CZ-2C R/B 3.7 17:16:09 10° SSW 17:18:02 13° S 17:19:13 11° SSE
ATLAS 5 CENTAUR R/B 1.6 17:13:09 10° NW 17:19:25 87° SW 17:19:39 76° SE
Meteor 2-15 4.4 17:14:10 10° S 17:20:16 85° W 17:26:24 10° N
Cosmos 2266 Rocket 4.0 17:14:27 10° N 17:20:54 87° W 17:27:19 10° S
ERBS 4.5 17:19:35 10° NW 17:20:46 17° NNW 17:20:46 17° NNW
USA 307 2.7 17:18:55 10° WNW 17:23:12 88° SSW 17:23:33 75° SE
CZ-4C R/B 4.2 17:16:38 10° NW 17:23:28 42° WSW 17:31:15 10° S
SL-08 RB Rocket 3.6 17:20:16 10° SSE 17:24:53 82° ENE 17:29:29 10° NNW
Lacrosse 5 rocket 3.0 17:22:25 10° WNW 17:25:58 31° SW 17:28:57 14° S
NOSS 3-4 (A) 4.1 17:21:22 10° NW 17:27:43 43° NE 17:28:52 40° ENE
NOSS 3-4 (C) 4.2 17:21:28 10° NW 17:27:49 43° NE 17:28:56 40° ENE
Cosmos 1933 Rocket 3.6 17:24:33 10° NNW 17:28:54 78° W 17:33:13 10° S
USA 234 3.7 17:22:52 10° SE 17:29:18 59° SW 17:35:46 10° WNW
Cosmos 2322 Rocket 2.2 17:23:37 10° NNW 17:29:22 85° WSW 17:35:03 10° SSE
ATLAS 2AS CENTAUR R/B 3.7 17:23:50 10° NW 17:30:19 30° NNE 17:31:18 29° NNE
COSMOS 2428 4.0 17:25:32 10° NNW 17:28:43 24° NNE 17:28:43 24° NNE
NOAA 15 4.4 17:28:30 10° SSE 17:33:46 74° ENE 17:39:02 10° NNW
Cosmos 1544 4.1 17:31:33 10° NNW 17:35:01 44° W 17:38:28 10° SSW
Cosmos 1125 Rocket 4.3 17:32:03 10° NNW 17:37:08 52° WSW 17:42:14 10° S
Cosmos 1867 3.5 17:32:54 10° SSW 17:38:19 66° ESE 17:38:27 66° ESE
NOSS 3-3 (A) 4.0 17:33:04 10° SSW 17:38:22 50° SE 17:38:22 50° SE
NOSS 3-3 (C) 4.0 17:33:11 10° SSW 17:38:27 50° SE 17:38:27 50° SE
H-2A R/B 3.6 17:34:02 10° SSW 17:38:42 35° W 17:43:17 10° NNW
X-37B 3.3 17:37:06 10° SW 17:37:49 15° SW 17:37:49 15° SW
DEBRIS 4.5 17:37:17 10° SSW 17:38:35 25° S 17:38:35 25° S
Okean O Rocket 2.4 17:36:01 10° S 17:40:22 51° W 17:44:44 10° NNW
GEOS 3 Rocket 3.8 17:41:55 56° NNE 17:41:55 56° NNE 17:46:36 10° NW
Meteor 1-11 Rocket 4.1 17:36:33 10° NNW 17:42:08 63° W 17:47:49 10° S
USA 32 4.0 17:38:41 10° S 17:43:55 84° W 17:46:22 33° N
ATLAS CENTAUR R/B 4.1 17:43:36 10° NNW 17:44:13 11° N 17:44:13 11° N
USA 308 3.3 17:41:38 10° WNW 17:45:21 60° WSW 17:45:21 60° WSW
SL-16 R/B 3.1 17:44:23 10° NW 17:49:48 47° WSW 17:55:11 10° S
ARGOS 4.1 17:45:16 10° S 17:50:28 48° W 17:55:43 10° NNW
Cosmos 2237 Rocket 4.3 17:48:00 10° N 17:49:04 13° N 17:49:04 13° N
Cosmos 2082 Rocket 4.0 17:48:58 10° W 17:53:39 26° NW 17:56:57 16° N
Cosmos 1241 Rocket 4.3 17:55:30 10° SSW 18:01:52 83° SE 18:01:58 82° ESE
Cosmos 2333 Rocket 3.0 18:04:16 10° NNW 18:08:05 42° NNW 18:08:05 42° NNW
USA 305 4.5 18:06:03 10° WNW 18:08:52 33° W 18:08:52 33° W
CZ-2C R/B 3.9 18:06:50 17° N 18:10:17 37° WNW 18:15:00 10° SW
Cosmos 2219 Rocket 3.5 18:12:13 10° NNW 18:15:05 30° NNW 18:15:05 30° NNW
Aureole 3 Rocket 4.5 18:13:52 10° SSW 18:18:30 50° WNW 18:25:01 10° N
USA 267 3.8 18:37:47 50° NNW 18:37:47 50° NNW 18:43:48 10° W
Cosmos 2360 Rocket 3.6 18:45:25 10° NW 18:50:08 34° W 18:50:08 34° W
ATLAS 2AS CENTAUR R/B 4.2 19:15:14 10° NW 19:18:44 30° NNW 19:18:44 30° NNW
